Starlink 31048

operational
NORAD ID: 58544 Int'l Des: 2023-192 Owner: SPXS Country: US Constellation: starlink
LEOCIRCULAR

Starlink 31048について

説明を読み込み中...

リアルタイム位置

3D地球を読み込み中...

次回通過

高度履歴

Altitude vs Time

uPlot chart will show altitude changes over time

軌道要素

1 58544U 23192P 26035.80200760 -.00000256 00000-0 34734-5 0 9992
2 58544 53.1583 215.2078 0001003 102.3498 257.7615 15.30186249120958
Epoch: Feb 4, 2026 • Age: 18 hours

現在のステータス

高度 494.2 km
速度 7.62 km/s
衛星直下点 -52.64°S, 128.8°E
打ち上げ日 Dec 8, 2023
運用期間 2.1 years
タイプ internet

技術仕様

分類 Payload
質量 730.00 kg
乾燥質量 700.00 kg
総質量 730.00 kg
長さ 0.30 m
直径 4.10 m
スパン 29.00 m
形状 Box + pan
製造者 SPXS
バスタイプ Starlink V2M
フェーズステータス In Orbit
所有者/国 SPXS/US

大規模コンステレーション

Loading constellations...